Time,TemperatureF,DewpointF,PressureIn,WindDirection,WindDirectionDegrees,WindSpeedMPH,WindSpeedGustMPH,Humidity,HourlyPrecipIn,Conditions,Clouds,dailyrainin,SoftwareType,DateUTC
2013-01-27 00:02:00,57.7,54.9,30.22,South,180,0.0,1.0,90,0.00,,,0.01,meteohub,2013-01-27 06:02:00,
2013-01-27 00:07:00,57.6,54.7,30.22,South,180,0.0,1.0,90,0.00,,,0.00,meteohub,2013-01-27 06:07:00,
2013-01-27 00:12:00,57.4,54.9,30.22,South,180,0.0,1.0,91,0.00,,,0.00,meteohub,2013-01-27 06:12:00,
2013-01-27 00:17:00,57.4,54.9,30.22,South,180,0.0,1.0,91,0.00,,,0.00,meteohub,2013-01-27 06:17:00,
2013-01-27 00:22:00,57.2,54.7,30.22,South,180,0.0,1.0,91,0.00,,,0.00,meteohub,2013-01-27 06:22:00,
2013-01-27 00:27:00,57.2,54.7,30.22,South,180,0.0,1.0,91,0.00,,,0.00,meteohub,2013-01-27 06:27:00,
2013-01-27 00:32:00,57.0,54.5,30.22,South,180,0.0,0.0,91,0.00,,,0.00,meteohub,2013-01-27 06:32:00,
2013-01-27 00:37:00,57.0,54.5,30.22,South,180,0.0,0.0,91,0.00,,,0.00,meteohub,2013-01-27 06:37:00,
2013-01-27 00:42:00,57.0,54.5,30.22,South,180,1.0,0.0,91,0.00,,,0.00,meteohub,2013-01-27 06:42:00,
2013-01-27 00:47:00,57.0,54.5,30.22,South,180,0.0,1.0,91,0.00,,,0.00,meteohub,2013-01-27 06:47:00,
2013-01-27 00:52:00,57.0,54.7,30.22,South,180,0.0,1.0,92,0.00,,,0.00,meteohub,2013-01-27 06:52:00,
2013-01-27 00:57:00,57.0,54.7,30.22,South,180,0.0,1.0,92,0.00,,,0.00,meteohub,2013-01-27 06:57:00,
2013-01-27 01:02:00,57.0,54.7,30.22,South,180,0.0,1.0,92,0.00,,,0.00,meteohub,2013-01-27 07:02:00,
2013-01-27 01:07:00,57.0,54.7,30.22,South,180,0.0,1.0,92,0.00,,,0.00,meteohub,2013-01-27 07:07:00,
2013-01-27 01:13:00,57.2,54.9,30.22,South,180,0.0,0.0,92,0.00,,,0.00,meteohub,2013-01-27 07:13:00,
2013-01-27 01:18:00,57.2,54.9,30.22,South,180,0.0,0.0,92,0.00,,,0.00,meteohub,2013-01-27 07:18:00,
2013-01-27 01:23:00,57.0,54.7,30.22,South,180,0.0,0.0,92,0.00,,,0.00,meteohub,2013-01-27 07:23:00,
2013-01-27 01:28:00,57.0,54.7,30.22,South,180,0.0,0.0,92,0.00,,,0.00,meteohub,2013-01-27 07:28:00,
2013-01-27 01:33:00,57.0,54.7,30.22,South,180,0.0,1.0,92,0.00,,,0.00,meteohub,2013-01-27 07:33:00,
2013-01-27 01:38:00,57.0,54.7,30.22,South,180,0.0,1.0,92,0.00,,,0.00,meteohub,2013-01-27 07:38:00,
2013-01-27 01:43:00,56.8,54.5,30.22,South,180,0.0,1.0,92,0.00,,,0.00,meteohub,2013-01-27 07:43:00,
2013-01-27 01:48:00,56.8,54.5,30.22,South,180,0.0,1.0,92,0.00,,,0.00,meteohub,2013-01-27 07:48:00,
2013-01-27 01:53:00,56.8,54.5,30.22,South,180,0.0,0.0,92,0.00,,,0.00,meteohub,2013-01-27 07:53:00,
2013-01-27 01:58:00,56.8,54.5,30.22,South,180,0.0,0.0,92,0.00,,,0.00,meteohub,2013-01-27 07:58:00,
2013-01-27 02:03:00,56.8,54.5,30.22,South,180,0.0,0.0,92,0.00,,,0.00,meteohub,2013-01-27 08:03:00,
2013-01-27 02:08:00,57.0,54.7,30.22,South,180,0.0,0.0,92,0.00,,,0.00,meteohub,2013-01-27 08:08:00,
2013-01-27 02:13:00,57.0,54.7,30.22,South,180,0.0,0.0,92,0.00,,,0.00,meteohub,2013-01-27 08:13:00,
2013-01-27 02:18:00,57.0,54.7,30.22,South,180,0.0,1.0,92,0.00,,,0.00,meteohub,2013-01-27 08:18:00,
2013-01-27 02:23:00,57.2,55.2,30.22,South,180,0.0,1.0,93,0.00,,,0.00,meteohub,2013-01-27 08:23:00,
2013-01-27 02:28:00,57.6,55.6,30.22,South,180,0.0,2.0,93,0.00,,,0.00,meteohub,2013-01-27 08:28:00,
2013-01-27 02:33:00,57.7,55.8,30.22,South,180,0.0,2.0,93,0.00,,,0.00,meteohub,2013-01-27 08:33:00,
2013-01-27 02:38:00,57.7,55.8,30.22,South,180,0.0,2.0,93,0.00,,,0.00,meteohub,2013-01-27 08:38:00,
2013-01-27 02:43:00,57.7,55.4,30.22,South,180,0.0,2.0,92,0.00,,,0.00,meteohub,2013-01-27 08:43:00,
2013-01-27 02:48:00,57.7,55.4,30.22,South,180,0.0,2.0,92,0.00,,,0.00,meteohub,2013-01-27 08:48:00,
2013-01-27 02:53:00,57.7,55.4,30.22,South,180,0.0,2.0,92,0.00,,,0.00,meteohub,2013-01-27 08:53:00,
2013-01-27 02:58:00,57.7,55.4,30.22,South,180,0.0,1.0,92,0.00,,,0.00,meteohub,2013-01-27 08:58:00,
2013-01-27 03:03:00,57.7,55.4,30.22,South,180,0.0,1.0,92,0.00,,,0.00,meteohub,2013-01-27 09:03:00,
2013-01-27 03:08:00,57.7,55.4,30.22,South,180,0.0,1.0,92,0.00,,,0.00,meteohub,2013-01-27 09:08:00,
2013-01-27 03:13:00,57.7,55.4,30.22,South,180,0.0,0.0,92,0.00,,,0.00,meteohub,2013-01-27 09:13:00,
2013-01-27 03:18:00,57.7,55.8,30.22,South,180,0.0,1.0,93,0.00,,,0.00,meteohub,2013-01-27 09:18:00,
2013-01-27 03:23:00,57.7,55.8,30.22,South,180,0.0,1.0,93,0.00,,,0.00,meteohub,2013-01-27 09:23:00,
2013-01-27 03:28:00,57.7,55.8,30.22,South,180,0.0,1.0,93,0.00,,,0.00,meteohub,2013-01-27 09:28:00,
2013-01-27 03:33:00,57.7,55.8,30.22,South,180,2.0,2.0,93,0.00,,,0.00,meteohub,2013-01-27 09:33:00,
2013-01-27 03:38:00,57.6,55.6,30.22,South,180,0.0,2.0,93,0.00,,,0.00,meteohub,2013-01-27 09:38:00,
2013-01-27 03:43:00,57.6,55.6,30.22,South,180,0.0,2.0,93,0.00,,,0.00,meteohub,2013-01-27 09:43:00,
2013-01-27 03:48:00,57.6,55.2,30.22,South,180,1.0,3.0,92,0.00,,,0.00,meteohub,2013-01-27 09:48:00,
2013-01-27 03:53:00,57.6,55.6,30.22,South,180,1.0,3.0,93,0.00,,,0.00,meteohub,2013-01-27 09:53:00,
2013-01-27 03:58:00,57.4,55.4,30.22,South,180,0.0,2.0,93,0.00,,,0.00,meteohub,2013-01-27 09:58:00,
2013-01-27 04:03:00,57.0,55.0,30.21,South,180,0.0,2.0,93,0.00,,,0.00,meteohub,2013-01-27 10:03:00,
2013-01-27 04:08:00,56.7,54.3,30.21,South,180,0.0,2.0,92,0.00,,,0.00,meteohub,2013-01-27 10:08:00,
2013-01-27 04:13:00,56.5,54.5,30.22,South,180,0.0,2.0,93,0.00,,,0.00,meteohub,2013-01-27 10:13:00,
2013-01-27 04:18:00,56.7,54.7,30.21,South,180,0.0,2.0,93,0.00,,,0.00,meteohub,2013-01-27 10:18:00,
2013-01-27 04:23:00,56.7,54.7,30.21,South,180,0.0,1.0,93,0.00,,,0.00,meteohub,2013-01-27 10:23:00,
2013-01-27 04:28:00,56.8,54.9,30.21,South,180,0.0,1.0,93,0.00,,,0.00,meteohub,2013-01-27 10:28:00,
2013-01-27 04:33:00,56.8,55.2,30.21,South,180,0.0,1.0,94,0.00,,,0.00,meteohub,2013-01-27 10:33:00,
2013-01-27 04:38:00,57.0,55.2,30.21,South,180,0.0,3.0,94,0.00,,,0.00,meteohub,2013-01-27 10:38:00,
2013-01-27 04:43:00,57.0,55.2,30.21,South,180,1.0,3.0,94,0.00,,,0.00,meteohub,2013-01-27 10:43:00,
2013-01-27 04:48:00,57.4,55.6,30.21,South,180,0.0,4.0,94,0.00,,,0.00,meteohub,2013-01-27 10:48:00,
2013-01-27 04:53:00,57.4,55.6,30.21,South,180,0.0,4.0,94,0.00,,,0.00,meteohub,2013-01-27 10:53:00,
2013-01-27 04:58:00,57.4,55.6,30.21,South,180,1.0,4.0,94,0.00,,,0.00,meteohub,2013-01-27 10:58:00,
2013-01-27 05:03:00,57.0,55.0,30.21,South,180,1.0,2.0,93,0.00,,,0.00,meteohub,2013-01-27 11:03:00,
2013-01-27 05:08:00,57.0,55.2,30.21,South,180,2.0,3.0,94,0.00,,,0.00,meteohub,2013-01-27 11:08:00,
2013-01-27 05:13:00,57.0,55.2,30.21,South,180,0.0,3.0,94,0.01,,,0.01,meteohub,2013-01-27 11:13:00,
2013-01-27 05:18:00,57.0,55.2,30.21,South,180,0.0,3.0,94,0.01,,,0.01,meteohub,2013-01-27 11:18:00,
2013-01-27 05:23:00,56.8,55.2,30.21,South,180,0.0,3.0,94,0.01,,,0.01,meteohub,2013-01-27 11:23:00,
2013-01-27 05:28:00,56.8,55.2,30.21,South,180,0.0,2.0,94,0.01,,,0.01,meteohub,2013-01-27 11:28:00,
2013-01-27 05:33:00,56.8,55.2,30.21,South,180,0.0,2.0,94,0.01,,,0.01,meteohub,2013-01-27 11:33:00,
2013-01-27 05:38:00,57.0,55.2,30.21,South,180,0.0,2.0,94,0.01,,,0.01,meteohub,2013-01-27 11:38:00,
2013-01-27 05:43:00,57.0,55.2,30.21,South,180,0.0,2.0,94,0.01,,,0.01,meteohub,2013-01-27 11:43:00,
2013-01-27 05:48:00,57.0,55.2,30.21,South,180,0.0,2.0,94,0.01,,,0.01,meteohub,2013-01-27 11:48:00,
2013-01-27 05:53:00,56.8,55.2,30.21,South,180,0.0,1.0,94,0.01,,,0.01,meteohub,2013-01-27 11:53:00,
2013-01-27 05:58:00,56.5,54.5,30.21,South,180,0.0,1.0,93,0.01,,,0.01,meteohub,2013-01-27 11:58:00,
2013-01-27 06:03:00,56.1,54.5,30.21,South,180,0.0,1.0,94,0.01,,,0.01,meteohub,2013-01-27 12:03:00,
2013-01-27 06:08:00,56.1,54.5,30.22,South,180,0.0,2.0,94,0.01,,,0.01,meteohub,2013-01-27 12:08:00,
2013-01-27 06:13:00,56.1,54.5,30.21,South,180,0.0,2.0,94,0.00,,,0.01,meteohub,2013-01-27 12:13:00,
2013-01-27 06:18:00,56.5,54.9,30.21,South,180,0.0,2.0,94,0.00,,,0.01,meteohub,2013-01-27 12:18:00,
2013-01-27 06:23:00,56.5,54.9,30.22,South,180,0.0,1.0,94,0.00,,,0.01,meteohub,2013-01-27 12:23:00,
2013-01-27 06:28:00,56.5,54.9,30.22,South,180,0.0,1.0,94,0.00,,,0.01,meteohub,2013-01-27 12:28:00,
2013-01-27 06:33:00,56.3,54.7,30.22,South,180,0.0,1.0,94,0.00,,,0.01,meteohub,2013-01-27 12:33:00,
2013-01-27 06:38:00,55.9,54.3,30.22,South,180,0.0,1.0,94,0.00,,,0.01,meteohub,2013-01-27 12:38:00,
2013-01-27 06:43:00,55.2,53.6,30.22,South,180,0.0,0.0,94,0.00,,,0.01,meteohub,2013-01-27 12:43:00,
2013-01-27 06:48:00,54.9,53.2,30.22,South,180,0.0,1.0,94,0.00,,,0.01,meteohub,2013-01-27 12:48:00,
2013-01-27 06:53:00,54.9,53.2,30.22,South,180,0.0,2.0,94,0.00,,,0.01,meteohub,2013-01-27 12:53:00,
2013-01-27 06:58:00,55.0,53.6,30.22,South,180,1.0,2.0,95,0.00,,,0.01,meteohub,2013-01-27 12:58:00,
2013-01-27 07:03:00,55.0,53.6,30.22,South,180,0.0,2.0,95,0.00,,,0.01,meteohub,2013-01-27 13:03:00,
2013-01-27 07:08:00,55.2,53.8,30.22,South,180,0.0,2.0,95,0.00,,,0.01,meteohub,2013-01-27 13:08:00,
2013-01-27 07:13:00,55.2,53.6,30.22,South,180,0.0,1.0,94,0.00,,,0.01,meteohub,2013-01-27 13:13:00,
2013-01-27 07:18:00,55.0,53.4,30.22,South,180,0.0,1.0,94,0.00,,,0.01,meteohub,2013-01-27 13:18:00,
2013-01-27 07:23:00,55.2,53.8,30.22,South,180,0.0,1.0,95,0.00,,,0.01,meteohub,2013-01-27 13:23:00,
2013-01-27 07:28:00,55.6,54.1,30.22,South,180,0.0,1.0,95,0.00,,,0.01,meteohub,2013-01-27 13:28:00,
2013-01-27 07:33:00,55.6,54.1,30.22,South,180,0.0,1.0,95,0.00,,,0.01,meteohub,2013-01-27 13:33:00,
2013-01-27 07:38:00,55.9,54.5,30.22,South,180,0.0,1.0,95,0.00,,,0.01,meteohub,2013-01-27 13:38:00,
2013-01-27 07:43:00,56.7,55.2,30.22,South,180,0.0,1.0,95,0.00,,,0.01,meteohub,2013-01-27 13:43:00,
2013-01-27 07:48:00,57.2,55.8,30.23,South,180,0.0,1.0,95,0.00,,,0.01,meteohub,2013-01-27 13:48:00,
2013-01-27 07:53:00,57.7,56.3,30.23,South,180,0.0,1.0,95,0.00,,,0.01,meteohub,2013-01-27 13:53:00,
2013-01-27 07:58:00,58.3,56.8,30.23,South,180,0.0,1.0,95,0.00,,,0.01,meteohub,2013-01-27 13:58:00,
2013-01-27 08:03:00,58.8,57.4,30.23,South,180,0.0,1.0,95,0.00,,,0.01,meteohub,2013-01-27 14:03:00,
2013-01-27 08:08:00,59.2,57.7,30.23,South,180,0.0,2.0,95,0.00,,,0.01,meteohub,2013-01-27 14:08:00,
2013-01-27 08:13:00,59.4,57.9,30.23,South,178,1.0,2.0,95,0.00,,,0.01,meteohub,2013-01-27 14:13:00,
2013-01-27 08:18:00,60.1,58.6,30.23,South,178,2.0,4.0,95,0.00,,,0.01,meteohub,2013-01-27 14:18:00,
2013-01-27 08:23:00,60.6,58.8,30.24,South,178,1.0,4.0,94,0.00,,,0.01,meteohub,2013-01-27 14:23:00,
2013-01-27 08:28:00,61.3,59.5,30.24,South,172,2.0,4.0,94,0.00,,,0.01,meteohub,2013-01-27 14:28:00,
2013-01-27 08:33:00,61.9,59.9,30.24,ESE,109,2.0,8.0,93,0.00,,,0.01,meteohub,2013-01-27 14:33:00,
2013-01-27 08:38:00,62.1,59.7,30.24,SSE,161,1.0,8.0,92,0.00,,,0.01,meteohub,2013-01-27 14:38:00,
2013-01-27 08:43:00,62.4,59.7,30.24,SE,127,2.0,8.0,91,0.00,,,0.01,meteohub,2013-01-27 14:43:00,
2013-01-27 08:48:00,62.8,59.7,30.24,SSE,163,1.0,7.0,90,0.00,,,0.01,meteohub,2013-01-27 14:48:00,
2013-01-27 08:53:00,63.1,59.9,30.24,SSE,157,3.0,7.0,89,0.00,,,0.01,meteohub,2013-01-27 14:53:00,
2013-01-27 08:58:00,63.5,59.9,30.24,South,170,3.0,8.0,88,0.00,,,0.01,meteohub,2013-01-27 14:58:00,
2013-01-27 09:03:00,64.0,60.4,30.24,South,177,3.0,8.0,88,0.00,,,0.01,meteohub,2013-01-27 15:03:00,
2013-01-27 09:08:00,64.8,60.4,30.25,South,179,4.0,8.0,86,0.00,,,0.01,meteohub,2013-01-27 15:08:00,
2013-01-27 09:13:00,64.9,60.3,30.25,SSE,149,5.0,8.0,85,0.00,,,0.01,meteohub,2013-01-27 15:13:00,
2013-01-27 09:19:00,65.1,60.4,30.25,SE,137,2.0,9.0,85,0.00,,,0.01,meteohub,2013-01-27 15:19:00,
2013-01-27 09:24:00,66.0,61.3,30.25,SSE,163,2.0,10.0,85,0.00,,,0.01,meteohub,2013-01-27 15:24:00,
2013-01-27 09:29:00,66.7,61.3,30.25,SSE,165,5.0,10.0,83,0.00,,,0.01,meteohub,2013-01-27 15:29:00,
2013-01-27 09:34:00,66.9,61.5,30.25,South,172,5.0,10.0,83,0.00,,,0.01,meteohub,2013-01-27 15:34:00,
2013-01-27 09:39:00,67.1,61.3,30.25,South,171,2.0,11.0,82,0.00,,,0.01,meteohub,2013-01-27 15:39:00,
2013-01-27 09:44:00,67.5,61.7,30.25,SSE,148,3.0,11.0,82,0.00,,,0.01,meteohub,2013-01-27 15:44:00,
2013-01-27 09:49:00,68.2,62.1,30.25,SSE,167,7.0,11.0,81,0.00,,,0.01,meteohub,2013-01-27 15:49:00,
2013-01-27 09:54:00,68.4,61.9,30.25,SE,139,7.0,11.0,80,0.00,,,0.01,meteohub,2013-01-27 15:54:00,
2013-01-27 09:59:00,68.5,62.1,30.25,ESE,115,8.0,11.0,80,0.00,,,0.01,meteohub,2013-01-27 15:59:00,
2013-01-27 10:04:00,68.7,61.9,30.25,SSE,159,5.0,11.0,79,0.00,,,0.01,meteohub,2013-01-27 16:04:00,
2013-01-27 10:09:00,69.4,62.2,30.25,SSE,167,3.0,11.0,78,0.00,,,0.01,meteohub,2013-01-27 16:09:00,
2013-01-27 10:14:00,69.8,61.9,30.25,South,188,7.0,11.0,76,0.00,,,0.01,meteohub,2013-01-27 16:14:00,
2013-01-27 10:19:00,70.0,62.1,30.25,SSE,153,8.0,15.0,76,0.00,,,0.01,meteohub,2013-01-27 16:19:00,
2013-01-27 10:24:00,70.3,62.4,30.25,South,171,6.0,15.0,76,0.00,,,0.01,meteohub,2013-01-27 16:24:00,
2013-01-27 10:29:00,70.5,62.2,30.25,SSE,167,6.0,15.0,75,0.00,,,0.01,meteohub,2013-01-27 16:29:00,
2013-01-27 10:34:00,70.5,62.2,30.25,South,183,5.0,15.0,75,0.00,,,0.01,meteohub,2013-01-27 16:34:00,
2013-01-27 10:39:00,71.1,62.8,30.25,SSW,202,6.0,15.0,75,0.00,,,0.01,meteohub,2013-01-27 16:39:00,
2013-01-27 10:44:00,70.9,62.2,30.25,SSE,150,8.0,15.0,74,0.00,,,0.01,meteohub,2013-01-27 16:44:00,
2013-01-27 10:49:00,71.4,62.2,30.25,South,182,5.0,15.0,73,0.00,,,0.01,meteohub,2013-01-27 16:49:00,
2013-01-27 10:54:00,71.8,62.6,30.25,South,184,9.0,15.0,73,0.00,,,0.01,meteohub,2013-01-27 16:54:00,
2013-01-27 10:59:00,71.4,61.5,30.25,SSE,153,14.0,15.0,71,0.00,,,0.01,meteohub,2013-01-27 16:59:00,
2013-01-27 11:03:00,72.0,62.1,30.25,SSE,161,5.0,19.0,71,0.00,,,0.01,meteohub,2013-01-27 17:03:00,
2013-01-27 11:08:00,72.5,61.7,30.24,South,178,4.0,22.0,69,0.00,,,0.01,meteohub,2013-01-27 17:08:00,
2013-01-27 11:13:00,72.9,62.1,30.24,South,171,9.0,22.0,69,0.00,,,0.01,meteohub,2013-01-27 17:13:00,
2013-01-27 11:18:00,72.9,62.1,30.24,South,171,8.0,22.0,69,0.00,,,0.01,meteohub,2013-01-27 17:18:00,
2013-01-27 11:23:00,72.9,61.3,30.24,South,189,9.0,16.0,67,0.00,,,0.01,meteohub,2013-01-27 17:23:00,
2013-01-27 11:28:00,73.0,61.9,30.24,South,169,7.0,16.0,68,0.00,,,0.01,meteohub,2013-01-27 17:28:00,
2013-01-27 11:33:00,73.4,62.2,30.24,SE,135,8.0,16.0,68,0.00,,,0.01,meteohub,2013-01-27 17:33:00,
2013-01-27 11:39:00,73.2,61.5,30.24,SW,223,5.0,16.0,67,0.00,,,0.01,meteohub,2013-01-27 17:39:00,
2013-01-27 11:44:00,73.2,61.5,30.24,SSE,165,4.0,16.0,67,0.00,,,0.01,meteohub,2013-01-27 17:44:00,
2013-01-27 11:49:00,73.2,62.1,30.23,SSW,196,7.0,15.0,68,0.00,,,0.01,meteohub,2013-01-27 17:49:00,
2013-01-27 11:54:00,73.2,62.1,30.23,South,172,6.0,14.0,68,0.00,,,0.01,meteohub,2013-01-27 17:54:00,
2013-01-27 11:59:00,73.2,61.5,30.23,SSE,160,3.0,14.0,67,0.00,,,0.01,meteohub,2013-01-27 17:59:00,
2013-01-27 12:04:00,72.9,61.7,30.22,SSE,168,4.0,15.0,68,0.00,,,0.01,meteohub,2013-01-27 18:04:00,
2013-01-27 12:09:00,72.7,61.9,30.22,SSE,158,15.0,15.0,69,0.00,,,0.01,meteohub,2013-01-27 18:09:00,
2013-01-27 12:14:00,72.5,61.3,30.22,SSE,157,5.0,15.0,68,0.00,,,0.01,meteohub,2013-01-27 18:14:00,
2013-01-27 12:19:00,72.7,61.5,30.22,ESE,123,11.0,17.0,68,0.00,,,0.01,meteohub,2013-01-27 18:19:00,
2013-01-27 12:24:00,72.7,61.2,30.21,SSE,164,6.0,17.0,67,0.00,,,0.01,meteohub,2013-01-27 18:24:00,
2013-01-27 12:29:00,72.7,61.2,30.21,SE,130,9.0,14.0,67,0.00,,,0.01,meteohub,2013-01-27 18:29:00,
2013-01-27 12:34:00,73.0,61.5,30.21,SSE,153,9.0,15.0,67,0.00,,,0.01,meteohub,2013-01-27 18:34:00,
2013-01-27 12:39:00,72.9,61.3,30.20,South,171,4.0,15.0,67,0.00,,,0.01,meteohub,2013-01-27 18:39:00,
2013-01-27 12:44:00,72.9,61.3,30.20,SE,129,8.0,15.0,67,0.00,,,0.01,meteohub,2013-01-27 18:44:00,
2013-01-27 12:49:00,73.8,61.7,30.19,SSE,159,7.0,17.0,66,0.00,,,0.01,meteohub,2013-01-27 18:49:00,
2013-01-27 12:54:00,73.8,61.3,30.19,South,177,6.0,17.0,65,0.00,,,0.01,meteohub,2013-01-27 18:54:00,
2013-01-27 12:59:00,73.8,60.8,30.19,South,189,4.0,16.0,64,0.00,,,0.01,meteohub,2013-01-27 18:59:00,
2013-01-27 13:04:00,74.1,61.2,30.19,SE,126,13.0,14.0,64,0.00,,,0.01,meteohub,2013-01-27 19:04:00,
2013-01-27 13:09:00,74.7,61.2,30.19,SSE,148,7.0,14.0,63,0.00,,,0.01,meteohub,2013-01-27 19:09:00,
2013-01-27 13:14:00,74.1,61.2,30.19,South,175,3.0,18.0,64,0.00,,,0.01,meteohub,2013-01-27 19:14:00,
2013-01-27 13:19:00,74.1,61.2,30.18,South,184,4.0,18.0,64,0.00,,,0.01,meteohub,2013-01-27 19:19:00,
2013-01-27 13:24:00,74.3,60.4,30.18,South,181,7.0,15.0,62,0.00,,,0.01,meteohub,2013-01-27 19:24:00,
2013-01-27 13:29:00,74.3,60.8,30.18,SSW,198,10.0,16.0,63,0.00,,,0.01,meteohub,2013-01-27 19:29:00,
2013-01-27 13:34:00,74.7,60.8,30.18,SSE,153,6.0,16.0,62,0.00,,,0.01,meteohub,2013-01-27 19:34:00,
2013-01-27 13:39:00,75.6,61.7,30.18,South,186,4.0,16.0,62,0.00,,,0.01,meteohub,2013-01-27 19:39:00,
2013-01-27 13:44:00,75.6,60.3,30.18,SSE,160,5.0,14.0,59,0.00,,,0.01,meteohub,2013-01-27 19:44:00,
2013-01-27 13:49:00,75.6,61.2,30.18,SSE,165,8.0,12.0,61,0.00,,,0.01,meteohub,2013-01-27 19:49:00,
2013-01-27 13:54:00,76.6,61.7,30.18,South,169,6.0,12.0,60,0.00,,,0.01,meteohub,2013-01-27 19:54:00,
2013-01-27 13:59:00,76.1,60.3,30.17,South,186,7.0,12.0,58,0.00,,,0.01,meteohub,2013-01-27 19:59:00,
2013-01-27 14:04:00,74.8,60.4,30.18,South,182,7.0,11.0,61,0.00,,,0.01,meteohub,2013-01-27 20:04:00,
2013-01-27 14:09:00,75.0,60.6,30.17,SW,234,2.0,11.0,61,0.00,,,0.01,meteohub,2013-01-27 20:09:00,
2013-01-27 14:14:00,75.2,60.8,30.18,SSE,167,7.0,12.0,61,0.00,,,0.01,meteohub,2013-01-27 20:14:00,
2013-01-27 14:19:00,74.5,60.6,30.17,SSE,166,4.0,13.0,62,0.00,,,0.01,meteohub,2013-01-27 20:19:00,
2013-01-27 14:24:00,74.7,60.3,30.17,South,172,5.0,14.0,61,0.00,,,0.01,meteohub,2013-01-27 20:24:00,
2013-01-27 14:29:00,74.5,60.6,30.17,South,179,6.0,14.0,62,0.00,,,0.01,meteohub,2013-01-27 20:29:00,
2013-01-27 14:34:00,74.1,60.3,30.17,SSE,152,8.0,14.0,62,0.00,,,0.01,meteohub,2013-01-27 20:34:00,
2013-01-27 14:39:00,74.3,60.4,30.17,ESE,121,7.0,13.0,62,0.00,,,0.01,meteohub,2013-01-27 20:39:00,
2013-01-27 14:44:00,74.1,60.3,30.17,South,185,7.0,15.0,62,0.00,,,0.01,meteohub,2013-01-27 20:44:00,
2013-01-27 14:49:00,74.1,60.3,30.17,South,182,4.0,15.0,62,0.00,,,0.01,meteohub,2013-01-27 20:49:00,
2013-01-27 14:54:00,74.7,60.3,30.16,SSW,194,5.0,15.0,61,0.00,,,0.01,meteohub,2013-01-27 20:54:00,
2013-01-27 14:59:00,74.8,61.0,30.17,SE,124,10.0,15.0,62,0.00,,,0.01,meteohub,2013-01-27 20:59:00,
2013-01-27 15:04:00,74.7,60.8,30.16,SSE,154,7.0,13.0,62,0.00,,,0.01,meteohub,2013-01-27 21:04:00,
2013-01-27 15:09:00,74.3,60.4,30.16,SE,146,4.0,16.0,62,0.00,,,0.01,meteohub,2013-01-27 21:09:00,
2013-01-27 15:14:00,74.1,60.8,30.16,SSE,165,2.0,16.0,63,0.00,,,0.01,meteohub,2013-01-27 21:14:00,
2013-01-27 15:19:00,74.3,60.4,30.16,SSE,164,3.0,16.0,62,0.00,,,0.01,meteohub,2013-01-27 21:19:00,
2013-01-27 15:24:00,74.8,60.4,30.16,South,171,8.0,12.0,61,0.00,,,0.01,meteohub,2013-01-27 21:24:00,
2013-01-27 15:29:00,74.8,60.1,30.16,South,175,5.0,12.0,60,0.00,,,0.01,meteohub,2013-01-27 21:29:00,
2013-01-27 15:34:00,74.8,60.1,30.16,South,174,5.0,12.0,60,0.00,,,0.01,meteohub,2013-01-27 21:34:00,
2013-01-27 15:39:00,74.7,59.9,30.16,South,175,7.0,14.0,60,0.00,,,0.01,meteohub,2013-01-27 21:39:00,
2013-01-27 15:44:00,74.3,59.9,30.16,South,169,5.0,15.0,61,0.00,,,0.01,meteohub,2013-01-27 21:44:00,
2013-01-27 15:49:00,74.1,59.7,30.16,South,184,2.0,15.0,61,0.00,,,0.01,meteohub,2013-01-27 21:49:00,
2013-01-27 15:54:00,73.9,60.1,30.17,SSE,161,6.0,15.0,62,0.00,,,0.01,meteohub,2013-01-27 21:54:00,
2013-01-27 15:59:00,73.8,59.9,30.17,South,179,3.0,10.0,62,0.00,,,0.01,meteohub,2013-01-27 21:59:00,
2013-01-27 16:04:00,73.6,59.7,30.17,South,177,6.0,10.0,62,0.00,,,0.01,meteohub,2013-01-27 22:04:00,
2013-01-27 16:09:00,73.8,60.4,30.17,SSW,199,6.0,10.0,63,0.00,,,0.01,meteohub,2013-01-27 22:09:00,
2013-01-27 16:14:00,73.9,60.1,30.16,SSE,159,4.0,10.0,62,0.00,,,0.01,meteohub,2013-01-27 22:14:00,
2013-01-27 16:19:00,73.8,59.9,30.16,SSW,202,5.0,10.0,62,0.00,,,0.01,meteohub,2013-01-27 22:19:00,
2013-01-27 16:24:00,73.6,59.7,30.16,South,176,4.0,12.0,62,0.00,,,0.01,meteohub,2013-01-27 22:24:00,
2013-01-27 16:29:00,73.2,59.9,30.16,SSE,161,6.0,12.0,63,0.00,,,0.01,meteohub,2013-01-27 22:29:00,
2013-01-27 16:34:00,72.9,60.4,30.16,SSE,155,8.0,12.0,65,0.00,,,0.01,meteohub,2013-01-27 22:34:00,
2013-01-27 16:39:00,72.7,60.3,30.16,SSE,165,5.0,13.0,65,0.00,,,0.01,meteohub,2013-01-27 22:39:00,
2013-01-27 16:44:00,72.5,60.1,30.16,South,188,3.0,13.0,65,0.00,,,0.01,meteohub,2013-01-27 22:44:00,
2013-01-27 16:49:00,72.3,60.3,30.16,SSE,160,4.0,13.0,66,0.00,,,0.01,meteohub,2013-01-27 22:49:00,
2013-01-27 16:54:00,72.1,60.1,30.16,South,186,5.0,9.0,66,0.00,,,0.01,meteohub,2013-01-27 22:54:00,
2013-01-27 16:59:00,72.0,60.4,30.17,South,184,2.0,9.0,67,0.00,,,0.01,meteohub,2013-01-27 22:59:00,
2013-01-27 17:04:00,71.8,60.3,30.17,SSE,164,4.0,9.0,67,0.00,,,0.01,meteohub,2013-01-27 23:04:00,
2013-01-27 17:09:00,71.6,60.4,30.17,South,186,9.0,10.0,68,0.00,,,0.01,meteohub,2013-01-27 23:09:00,
2013-01-27 17:15:00,71.4,60.8,30.17,SSE,165,3.0,10.0,69,0.00,,,0.01,meteohub,2013-01-27 23:15:00,
2013-01-27 17:20:00,71.2,60.6,30.17,South,183,3.0,10.0,69,0.00,,,0.01,meteohub,2013-01-27 23:20:00,
2013-01-27 17:25:00,71.1,60.8,30.17,South,183,2.0,10.0,70,0.00,,,0.01,meteohub,2013-01-27 23:25:00,
2013-01-27 17:30:00,70.9,60.6,30.17,SSE,148,3.0,9.0,70,0.00,,,0.01,meteohub,2013-01-27 23:30:00,
2013-01-27 17:35:00,70.5,60.6,30.17,South,175,4.0,9.0,71,0.00,,,0.01,meteohub,2013-01-27 23:35:00,
2013-01-27 17:40:00,70.2,60.6,30.17,South,184,6.0,9.0,72,0.00,,,0.01,meteohub,2013-01-27 23:40:00,
2013-01-27 17:45:00,70.0,60.6,30.17,SE,138,5.0,8.0,72,0.00,,,0.01,meteohub,2013-01-27 23:45:00,
2013-01-27 17:50:00,69.6,60.6,30.17,South,188,3.0,9.0,73,0.00,,,0.01,meteohub,2013-01-27 23:50:00,
2013-01-27 17:55:00,69.4,60.4,30.17,South,185,5.0,9.0,73,0.00,,,0.01,meteohub,2013-01-27 23:55:00,
2013-01-27 18:00:00,69.3,60.6,30.17,South,179,1.0,7.0,74,0.00,,,0.01,meteohub,2013-01-28 00:00:00,
2013-01-27 18:05:00,69.3,60.6,30.17,SSE,166,5.0,7.0,74,0.00,,,0.01,meteohub,2013-01-28 00:05:00,
2013-01-27 18:10:00,69.3,61.0,30.17,South,180,2.0,7.0,75,0.00,,,0.01,meteohub,2013-01-28 00:10:00,
2013-01-27 18:15:00,69.1,60.8,30.17,SSE,153,3.0,7.0,75,0.00,,,0.01,meteohub,2013-01-28 00:15:00,
2013-01-27 18:20:00,69.1,60.8,30.17,SE,132,8.0,8.0,75,0.00,,,0.01,meteohub,2013-01-28 00:20:00,
2013-01-27 18:25:00,68.7,60.4,30.17,South,171,2.0,10.0,75,0.00,,,0.01,meteohub,2013-01-28 00:25:00,
2013-01-27 18:30:00,68.7,60.4,30.17,SSE,161,3.0,10.0,75,0.00,,,0.01,meteohub,2013-01-28 00:30:00,
2013-01-27 18:35:00,68.5,60.6,30.17,SE,134,3.0,10.0,76,0.00,,,0.01,meteohub,2013-01-28 00:35:00,
2013-01-27 18:40:00,68.2,60.3,30.17,South,178,3.0,9.0,76,0.00,,,0.01,meteohub,2013-01-28 00:40:00,
2013-01-27 18:45:00,67.8,60.3,30.18,SSE,165,4.0,10.0,77,0.00,,,0.01,meteohub,2013-01-28 00:45:00,
2013-01-27 18:50:00,67.6,60.3,30.18,SSW,194,4.0,10.0,77,0.00,,,0.01,meteohub,2013-01-28 00:50:00,
2013-01-27 18:55:00,67.5,60.4,30.18,SSE,155,3.0,9.0,78,0.00,,,0.01,meteohub,2013-01-28 00:55:00,
2013-01-27 19:00:00,67.3,60.3,30.18,South,185,3.0,9.0,78,0.00,,,0.01,meteohub,2013-01-28 01:00:00,
2013-01-27 19:05:00,67.3,60.6,30.19,South,186,1.0,7.0,79,0.00,,,0.01,meteohub,2013-01-28 01:05:00,
2013-01-27 19:10:00,67.3,60.6,30.19,South,188,2.0,7.0,79,0.00,,,0.01,meteohub,2013-01-28 01:10:00,
2013-01-27 19:15:00,67.3,60.6,30.19,SSW,202,2.0,7.0,79,0.00,,,0.01,meteohub,2013-01-28 01:15:00,
2013-01-27 19:20:00,67.3,60.6,30.19,SSE,161,4.0,6.0,79,0.00,,,0.01,meteohub,2013-01-28 01:20:00,
2013-01-27 19:25:00,67.3,60.6,30.19,SE,140,8.0,8.0,79,0.00,,,0.01,meteohub,2013-01-28 01:25:00,
2013-01-27 19:30:00,67.3,60.6,30.19,SSE,155,5.0,8.0,79,0.00,,,0.01,meteohub,2013-01-28 01:30:00,
2013-01-27 19:35:00,67.1,60.4,30.19,SE,138,4.0,9.0,79,0.00,,,0.01,meteohub,2013-01-28 01:35:00,
2013-01-27 19:40:00,66.9,60.6,30.19,South,170,2.0,10.0,80,0.00,,,0.01,meteohub,2013-01-28 01:40:00,
2013-01-27 19:45:00,66.7,60.4,30.19,South,181,1.0,10.0,80,0.00,,,0.01,meteohub,2013-01-28 01:45:00,
2013-01-27 19:50:00,66.6,60.6,30.19,SE,146,6.0,8.0,81,0.00,,,0.01,meteohub,2013-01-28 01:50:00,
2013-01-27 19:55:00,66.4,60.4,30.19,SSE,165,3.0,9.0,81,0.00,,,0.01,meteohub,2013-01-28 01:55:00,
2013-01-27 20:00:00,66.2,60.3,30.19,South,170,2.0,9.0,81,0.00,,,0.01,meteohub,2013-01-28 02:00:00,
2013-01-27 20:05:00,66.0,60.4,30.19,South,171,2.0,9.0,82,0.00,,,0.01,meteohub,2013-01-28 02:05:00,
2013-01-27 20:10:00,65.8,60.3,30.19,South,177,2.0,8.0,82,0.00,,,0.01,meteohub,2013-01-28 02:10:00,
2013-01-27 20:15:00,65.8,60.3,30.19,South,172,2.0,7.0,82,0.00,,,0.01,meteohub,2013-01-28 02:15:00,
2013-01-27 20:20:00,65.7,60.4,30.19,South,172,2.0,7.0,83,0.00,,,0.01,meteohub,2013-01-28 02:20:00,
2013-01-27 20:25:00,65.5,60.3,30.20,South,172,2.0,5.0,83,0.00,,,0.01,meteohub,2013-01-28 02:25:00,
2013-01-27 20:30:00,65.5,60.3,30.20,South,172,4.0,5.0,83,0.00,,,0.01,meteohub,2013-01-28 02:30:00,
2013-01-27 20:35:00,65.3,60.1,30.20,SSE,150,3.0,7.0,83,0.00,,,0.01,meteohub,2013-01-28 02:35:00,
2013-01-27 20:40:00,65.3,60.1,30.20,SE,142,7.0,7.0,83,0.00,,,0.01,meteohub,2013-01-28 02:40:00,
2013-01-27 20:45:00,65.1,60.1,30.20,SE,140,6.0,7.0,84,0.00,,,0.01,meteohub,2013-01-28 02:45:00,
2013-01-27 20:50:00,65.1,60.1,30.19,SSE,163,4.0,7.0,84,0.00,,,0.01,meteohub,2013-01-28 02:50:00,
2013-01-27 20:55:00,64.9,59.9,30.19,SSE,168,3.0,8.0,84,0.00,,,0.01,meteohub,2013-01-28 02:55:00,
2013-01-27 21:00:00,64.9,59.9,30.19,SSE,165,4.0,9.0,84,0.00,,,0.01,meteohub,2013-01-28 03:00:00,
2013-01-27 21:05:00,64.9,59.9,30.19,SE,135,6.0,9.0,84,0.00,,,0.01,meteohub,2013-01-28 03:05:00,
2013-01-27 21:10:00,64.9,59.9,30.19,SSE,167,5.0,9.0,84,0.00,,,0.01,meteohub,2013-01-28 03:10:00,
2013-01-27 21:15:00,64.8,59.9,30.19,SE,144,6.0,9.0,84,0.00,,,0.01,meteohub,2013-01-28 03:15:00,
2013-01-27 21:20:00,64.8,59.9,30.19,SE,139,5.0,9.0,84,0.00,,,0.01,meteohub,2013-01-28 03:20:00,
2013-01-27 21:25:00,64.8,60.1,30.20,SSE,149,8.0,8.0,85,0.00,,,0.01,meteohub,2013-01-28 03:25:00,
2013-01-27 21:30:00,64.6,59.9,30.20,SSE,161,5.0,9.0,85,0.00,,,0.01,meteohub,2013-01-28 03:30:00,
2013-01-27 21:35:00,64.6,59.7,30.19,SSE,152,8.0,10.0,84,0.00,,,0.01,meteohub,2013-01-28 03:35:00,
2013-01-27 21:40:00,64.6,59.7,30.19,SE,126,10.0,10.0,84,0.00,,,0.01,meteohub,2013-01-28 03:40:00,
2013-01-27 21:45:00,64.8,59.9,30.19,ESE,117,5.0,13.0,84,0.00,,,0.01,meteohub,2013-01-28 03:45:00,
2013-01-27 21:50:00,64.8,59.9,30.19,ESE,122,9.0,13.0,84,0.00,,,0.01,meteohub,2013-01-28 03:50:00,
2013-01-27 21:55:00,64.8,59.9,30.19,SE,130,8.0,13.0,84,0.00,,,0.01,meteohub,2013-01-28 03:55:00,
2013-01-27 22:00:00,64.8,59.5,30.19,SE,130,10.0,15.0,83,0.00,,,0.01,meteohub,2013-01-28 04:00:00,
2013-01-27 22:05:00,64.9,59.7,30.19,SSE,158,4.0,15.0,83,0.00,,,0.01,meteohub,2013-01-28 04:05:00,
2013-01-27 22:10:00,64.8,59.9,30.19,ESE,122,9.0,13.0,84,0.00,,,0.01,meteohub,2013-01-28 04:10:00,
2013-01-27 22:15:00,64.8,59.9,30.19,SE,130,7.0,13.0,84,0.00,,,0.01,meteohub,2013-01-28 04:15:00,
2013-01-27 22:21:00,64.6,59.7,30.19,SSE,153,5.0,13.0,84,0.00,,,0.01,meteohub,2013-01-28 04:21:00,
2013-01-27 22:26:00,64.6,59.7,30.19,SE,124,7.0,12.0,84,0.00,,,0.01,meteohub,2013-01-28 04:26:00,
2013-01-27 22:31:00,64.2,59.4,30.19,ESE,121,7.0,10.0,84,0.00,,,0.01,meteohub,2013-01-28 04:31:00,
2013-01-27 22:36:00,64.2,59.5,30.19,SSE,153,4.0,11.0,85,0.00,,,0.01,meteohub,2013-01-28 04:36:00,
2013-01-27 22:41:00,64.0,59.4,30.19,South,176,3.0,11.0,85,0.00,,,0.01,meteohub,2013-01-28 04:41:00,
2013-01-27 22:46:00,64.0,59.4,30.19,South,189,4.0,11.0,85,0.00,,,0.01,meteohub,2013-01-28 04:46:00,
2013-01-27 22:51:00,63.9,59.2,30.19,South,171,3.0,10.0,85,0.00,,,0.01,meteohub,2013-01-28 04:51:00,
2013-01-27 22:56:00,63.9,59.5,30.19,SSE,165,3.0,10.0,86,0.00,,,0.01,meteohub,2013-01-28 04:56:00,
2013-01-27 23:00:00,63.7,59.4,30.19,SE,137,5.0,10.0,86,0.00,,,0.01,meteohub,2013-01-28 05:00:00,
2013-01-27 23:03:00,63.7,59.4,30.19,South,180,3.0,10.0,86,0.00,,,0.01,meteohub,2013-01-28 05:03:00,
2013-01-27 23:08:00,63.5,59.5,30.19,SSE,155,5.0,10.0,87,0.00,,,0.01,meteohub,2013-01-28 05:08:00,
2013-01-27 23:13:00,63.3,59.4,30.19,SSE,168,2.0,10.0,87,0.00,,,0.01,meteohub,2013-01-28 05:13:00,
2013-01-27 23:18:00,63.3,59.4,30.18,SE,134,4.0,10.0,87,0.00,,,0.01,meteohub,2013-01-28 05:18:00,
2013-01-27 23:23:00,63.3,59.4,30.19,SSE,161,4.0,10.0,87,0.00,,,0.01,meteohub,2013-01-28 05:23:00,
2013-01-27 23:28:00,63.1,59.2,30.19,SE,142,3.0,10.0,87,0.00,,,0.01,meteohub,2013-01-28 05:28:00,
2013-01-27 23:33:00,63.1,59.2,30.19,South,173,2.0,10.0,87,0.00,,,0.01,meteohub,2013-01-28 05:33:00,
2013-01-27 23:38:00,63.1,59.2,30.19,South,187,1.0,7.0,87,0.00,,,0.01,meteohub,2013-01-28 05:38:00,
2013-01-27 23:43:00,63.1,59.5,30.19,SSE,148,3.0,7.0,88,0.00,,,0.01,meteohub,2013-01-28 05:43:00,
2013-01-27 23:48:00,63.1,59.5,30.19,South,178,1.0,7.0,88,0.00,,,0.01,meteohub,2013-01-28 05:48:00,
2013-01-27 23:53:00,63.0,59.4,30.19,South,178,2.0,7.0,88,0.00,,,0.01,meteohub,2013-01-28 05:53:00,
2013-01-27 23:58:00,62.8,59.2,30.19,South,178,2.0,7.0,88,0.00,,,0.01,meteohub,2013-01-28 05:58:00,